Погода в Минске

Погода в Минске : погода сейчас, прогноз погоды и архив. Всё, что Вы хотите узнать о погоде в Минске!

Хотите узнать прогноз погоды Минск? Тогда Вам сюда: Погода Минск

Поиск расширенной информации на нашем сайте:

Другие новости

Новости СМИ2

Главная страница сайта

Новости сайта

02.10.2013

Напоминаем, что на нашем новом сайте вы можете получить высокодетализированные прогнозы погоды по пунктам России, СНГ и мира (включающие важные для авиации метеовеличины, такие как направление и скорость ветра, видимость, явления погоды, количество и форма облачности, нижняя и верхняя граница облачности), а также ознакомиться с разнообразными материалами по авиационной метеорологии и подборкой полезных ссылок на эту тему.

Сайт Метеоцентр.Азия посвящён разработке технологий оптимизации авиаметеорологического обслуживания, включая проектирование и перспективное создание нескольких автоматизированных авиаметеорологических систем:
- система выпуска высокодетальных прогностических карт явлений погоды для нижнего воздушного пространства по России и ближнему зарубежью;
- система верификации прогнозов TAF (выпускаемых синоптиками официальных АМСГ РФ и ближнего зарубежья) и AUTOTAF (выпускаемых сайтом Метеоцентр.Азия) - выявление ошибок, онлайн-сопоставление с фактической погодой METAR, автоматическое внесение коррективов в прогнозы при резком отклонении фактической погоды от прогноза, подсчёт оправдываемости прогнозов по элементам и в целом;
- система обработки, анализа и отображения авиаметеорологической информации для применения провайдерами метеорологической информации.

Рекомендуем: Информация как скачивать видео с ютуба здесь.

Погода в Минске - сегодня

Время (UTC), дата Ветер
(°,м/с) 
Видим.   Явления Облачность Т
(°С)
Тd
(°С)
f(%) Тe
(°С)
Pmin
(гПа)
dP
(гПа)
Po
(мм)
O2
(г/м3)
Тmin Tmax R s Состояние
почвы
03 26.03.17 020 (С) 19000 м    10/10 420 м 
[Sc]
+0.1 -1.7 88 -1  1019.1  1.7  743  299      0.0     
06 26.03.17 340 (С) 16000 м    10/10 330 м 
[Sc]
+0 -1.9 87 -1  1021.3  2.1  745  300  -0.3    0.0     
09 26.03.17 320 (СЗ) 17000 м    8/8 450 м 
[Sc]
+1.6 -2.4 75 +1  1022.4  1.2  746  299           
12 26.03.17 320 (СЗ) 22000 м    9/8 800 м верхняя 
[Sc|Ci fib]
+3.4 -1.4 71 +2  1021.6  -0.6  745  297           
15 26.03.17 280 (З) 25000 м    9/8 1300 м средняя 
[Sc|Ac trans]
+4.5 -1.9 63 +3  1019.5  -1.9  744  295           
18 26.03.17 280 (З) 24000 м    8/5 360 м верхняя 
[Sc|Ci fib]
+3.2 -2.2 68 +1  1018.9  -0.7  743  296    +5.3       
21 26.03.17 270 (З) 4{11}  22000 м  {ливн. осадки}  9/6 330 м средняя 
[Sc|Ac trans]
+2.9 -1.4 73 +1  1015.6  -3.2  741  295           
00 27.03.17 280 (З) 4{14}  20000 м  в посл. час дождь{ливн. осадки}  8/0 средняя 
[Ac trans]
+3.7 -1.2 70 +2  1011.9  -3.6  738  294           
06 27.03.17 310 (СЗ) 20000 м    3/0 средняя 
[Ac trans]
+4.6 -0.1 72 +3  1012.6  1.4  739  293  +2.6    0.0     
09 27.03.17 320 (СЗ) 4{12}  25000 м    ясно 
+8.2 -3.2 44 +7  1013.2  739  290           
12 27.03.17 330 (СЗ) 3{12}  21000 м    ясно 
+10.4 -3.9 36 +10  1012.8  -0.2  739  287           
15 27.03.17 300 (СЗ) 4{12}  24000 м    ясно 
+10.7 -4.5 34 +10  1012.1  -0.6  739  287           
18 27.03.17 280 (З) 3{11}  21000 м    ясно 
+8.3 -2 48 +8  1011.7  -0.7  738  289    +11.4       
21 27.03.17 280 (З) 21000 м    8/0 средняя 
[Ac trans]
+8.6 +0.9 58 +8  1009.6  -2  737  288           
00 28.03.17 290 (З) 4{10}  17000 м    3/0 средняя 
[Ac trans]
+7.8 +2.9 71 +7  1007.3  -2.3  735  287           
03 28.03.17 290 (З) 4{11}  20000 м    6/6 720 м 
[Sc]
+5.8 +2.1 77 +4  1008.1  0.6  736  290           
06 28.03.17 310 (СЗ) 5-10{12}  21000 м    4/4 840 м 
[Sc]
+4.9 -0.3 69 +3  1010.6  2.3  737  292  +4.4         
09 28.03.17 320 (СЗ) 5-10{12}  23000 м    3/0 средняя 
[Ac trans]
+7 -5.1 42 +5  1012.4  739  291           
12 28.03.17 310 (СЗ) 4{12}  27000 м    ясно 
+10.3 -4.7 34 +9  1012.3  0.2  739  287           
15 28.03.17 310 (СЗ) 5{12}  22000 м    ясно 
+9.2 -6.2 33 +8  1013  0.6  739  289           
18 28.03.17 300 (СЗ) 23000 м    8/0 средняя 
[Ac trans]
+6.3 -4.7 45 +6  1014.7  1.3  740  292    +10.5       
21 28.03.17 300 (СЗ) 25000 м    ясно 
+4.5 -3.3 57 +5  1015.6  0.7  741  294           
00 29.03.17 320 (СЗ) 27000 м    ясно 
+1.2 -7.3 53 +2  1017.2  1.2  742  298           
03 29.03.17 тихо ()   25000 м    4/0 средняя 
[Ac trans]
-0.6 -7.6 59 -1  1017.1  -0.3  742  300           
06 29.03.17 050 (СВ) 24000 м    9/4 1000 м средняя 
[Sc|Ac trans]
+0.5 -6.8 58 +1  1017.3  0.4  742  299  -0.9         
Время (UTC), дата Ветер
(°,м/с) 
Видим.   Явления Облачность Т
(°С)
Тd
(°С)
f(%) Тe
(°С)
Pmin
(гПа)
dP
(гПа)
Po
(мм)
O2
(г/м3)
Тmin Tmax R s Состояние
почвы

Для получения пояснительной информации подведите курсор к названию столбца.

ПОГОДА в Минске - архив

Всё, что Вы хотите узнать о погоде в Минске - удобно и подробно!

Выберите нужную дату (начиная с 1 января 2015* года) и нажмите кнопку "Найти".
Будут отображены архивные сводки погоды по пункту Минск, начиная с указанной даты.


Отображать данные в формате CSV (для использования в таблицах Excel)


Внимание! Наш архив погоды предназначен исключительно для личного некоммерческого использования в познавательных целях. Если Вам необходимы официальные справки о состоянии погоды (для производственных, юридических, коммерческих и т.п. целей), обращайтесь в органы Росгидромета.

*Примечание: данная дата относится к архиву по метеостанциям СССР (Россия, СНГ, Балтия).
Архив по метеостанциям Зарубежной Европы и Азии (кроме Китая) хранится 10 дней, по другим регионам земного шара (Китай, Африка, Америка, Австралия, Океания) - 1 день.

Минск - район местоположения метеостанции


Название, широта, долгота, высота метеостанции:
Минск (город) 53.9°ш. 27.6°д. 231 м над ур. моря [Беларусь]

Дополнительная информация

В oтличие oт бoльшинства пoгoдных сайтoв мы публикуем пoдрoбную метеoинфoрмацию в детальнoм прoфессиoнальнoм фoрмате.

Характеристики температуры и влажнoсти вoздуха измеряются на высoте 2 м в тени вдали oт зданий и деревьев.
Скoрoсть ветра измеряется на высoте 10 м (на урoвне рoста челoвека скoрoсть ветра ниже в 1.5-2 раза). Если метеoстанция нахoдится в гoрoде или в лесу, тo скoрoсть ветра занижена на 2-4 м/с пo сравнению с oткрытым местoм. Скoрoсть ветра над акватoриями крупных рек и oзёр, а также на вершинах хoлмoв на 2-5 м/с выше, чем в oбычных услoвиях.
Атмoсфернoе давление в разных тoчках местнoсти мoжет значительнo oтличаться oт давления на метеoстанции, в зависимoсти oт услoвий рельефа (при пoдъёме на 10 м давление пoнижается примернo на 1 мм рт.ст.).